McCook, NE

12:37 AM CDT on April 24, 2018 (GMT -0500)
McCook Municipal

Weather History for KMCK - March, 2013

Change the Weather History Date:

Wednesday, March 20, 2013

  Actual Average Record
Temperature  
Mean Temperature 33 °F 40 °F  
Max Temperature 51 °F 56 °F 85 °F (1997)
Min Temperature 15 °F 26 °F 3 °F (1965)
Degree Days  
Heating Degree Days 32    
Moisture  
Dew Point 14 °F    
Average Humidity 50    
Maximum Humidity 81    
Minimum Humidity 25    
Precipitation  
Precipitation 0.00 in 0.05 in 0.98 in (1962)
Month to date precipitation 0.19 0.82  
Year to date precipitation 1.36 1.95  
Sea Level Pressure  
Sea Level Pressure 30.26 in    
Wind  
Wind Speed 8 mph (SSE)    
Max Wind Speed 18 mph    
Max Gust Speed 26 mph    
Visibility 10 miles    
Events      
T = Trace of Precipitation, MM = Missing Value Source: NWS Daily Summary

Daily Weather History Graph

Daily Weather History Graph

Search for Another Location

Airport or City:

Astronomy

Mar. 20, 2013 Rise Set
Actual Time 7:45 AM CDT 7:54 PM CDT
Civil Twilight 7:18 AM CDT 8:21 PM CDT
Nautical Twilight 6:46 AM CDT 8:53 PM CDT
Astronomical Twilight 6:14 AM CDT 9:25 PM CDT
Moon 1:31 PM CDT (3/20) 3:26 AM CDT (3/20)
Length of Visible Light 13h 03m
Length of Day
12h 09m
First Quarter, 59% of the Moon is Illuminated
Mar 20
First Quarter
Mar 27
Full
Apr 2
Last Quarter
Apr 10
New
Apr 18
First Quarter

Hourly Weather History & Observations

Time (CDT) Temp. Windchill Dew Point Humidity Pressure Visibility Wind Dir Wind Speed Gust Speed Precip Events Conditions
12:53 AM 27.0 °F 19.5 °F 18.0 °F 69% 30.41 in 10.0 mi North 6.9 mph - N/A   Clear
1:53 AM 24.1 °F 15.2 °F 14.0 °F 65% 30.44 in 10.0 mi North 8.1 mph - N/A   Clear
2:53 AM 23.0 °F 15.8 °F 10.9 °F 60% 30.45 in 10.0 mi North 5.8 mph - N/A   Clear
3:53 AM 21.0 °F 14.6 °F 10.9 °F 65% 30.45 in 10.0 mi NNW 4.6 mph - N/A   Clear
4:53 AM 17.1 °F 8.7 °F 10.0 °F 74% 30.44 in 10.0 mi West 5.8 mph - N/A   Clear
5:53 AM 16.0 °F 10.4 °F 10.0 °F 77% 30.44 in 10.0 mi SW 3.5 mph - N/A   Clear
6:53 AM 15.1 °F 5.2 °F 10.0 °F 80% 30.43 in 10.0 mi WSW 6.9 mph - N/A   Clear
7:53 AM 16.0 °F 10.4 °F 10.9 °F 81% 30.45 in 10.0 mi West 3.5 mph - N/A   Clear
8:53 AM 19.9 °F - 14.0 °F 78% 30.44 in 10.0 mi Calm Calm - N/A   Clear
9:53 AM 26.1 °F - 16.0 °F 66% 30.43 in 10.0 mi Calm Calm - N/A   Clear
10:53 AM 30.9 °F 27.5 °F 10.9 °F 43% 30.42 in 10.0 mi Variable 3.5 mph - N/A   Clear
11:53 AM 35.1 °F 32.2 °F 8.1 °F 33% 30.38 in 10.0 mi Variable 3.5 mph - N/A   Clear
12:53 PM 39.9 °F 34.5 °F 10.0 °F 29% 30.32 in 10.0 mi South 8.1 mph - N/A   Clear
1:53 PM 44.1 °F 38.6 °F 12.0 °F 27% 30.26 in 10.0 mi South 10.4 mph - N/A   Clear
2:53 PM 46.0 °F 39.9 °F 12.0 °F 25% 30.20 in 10.0 mi SSE 13.8 mph 24.2 mph N/A   Clear
3:53 PM 48.9 °F - 14.0 °F 25% 30.14 in 10.0 mi South 17.3 mph 25.3 mph N/A   Clear
4:53 PM 50.0 °F - 15.1 °F 25% 30.09 in 10.0 mi South 18.4 mph 26.5 mph N/A   Clear
5:53 PM 48.9 °F - 15.1 °F 26% 30.06 in 10.0 mi SSE 16.1 mph - N/A   Clear
6:53 PM 46.9 °F - 16.0 °F 29% 30.03 in 10.0 mi SSE 12.7 mph 23.0 mph N/A   Clear
7:53 PM 43.0 °F 35.7 °F 17.1 °F 35% 30.00 in 10.0 mi SE 15.0 mph - N/A   Clear
8:53 PM 39.0 °F 31.4 °F 17.1 °F 41% 29.99 in 10.0 mi ESE 12.7 mph - N/A   Clear
9:53 PM 37.0 °F 27.7 °F 18.0 °F 46% 29.97 in 10.0 mi ESE 16.1 mph - N/A   Scattered Clouds
10:53 PM 36.0 °F 26.3 °F 18.0 °F 48% 29.94 in 10.0 mi ESE 16.1 mph - N/A   Mostly Cloudy
11:53 PM 35.1 °F 25.9 °F 19.0 °F 52% 29.95 in 10.0 mi East 13.8 mph - N/A   Scattered Clouds